Port Huron, MI

9:59 AM EDT on July 21, 2017 (GMT -0400)
Saint Clair County International

Weather History for KPHN - February, 2013

Change the Weather History Date:

Wednesday, February 20, 2013

  Actual Average (KMTC) Record (KMTC)
Temperature  
Mean Temperature 21 °F -  
Max Temperature 23 °F 35 °F 60 °F (2016)
Min Temperature 19 °F 20 °F -9 °F (2015)
Degree Days  
Heating Degree Days 44    
Moisture  
Dew Point 11 °F    
Average Humidity 65    
Maximum Humidity 80    
Minimum Humidity 54    
Precipitation  
Precipitation 0.00 in - - ()
Sea Level Pressure  
Sea Level Pressure 30.03 in    
Wind  
Wind Speed 11 mph (WNW)    
Max Wind Speed 18 mph    
Max Gust Speed 24 mph    
Visibility 9 miles    
Events Snow    
Averages and records for this station are not official NWS values.
T = Trace of Precipitation, MM = Missing Value Source: NWS Daily Summary

Daily Weather History Graph

Daily Weather History Graph

Search for Another Location

Airport or City:

Trip Planner

Search our weather history database for the weather conditions in past years. The results will help you decide how hot, cold, wet, or windy it might be!

Date:

Astronomy

Feb. 20, 2013 Rise Set
Actual Time 7:19 AM EST 6:08 PM EST
Civil Twilight 6:51 AM EST 6:37 PM EST
Nautical Twilight 6:18 AM EST 7:10 PM EST
Astronomical Twilight 5:45 AM EST 7:43 PM EST
Moon 1:24 PM EST (2/20) 3:43 AM EST (2/20)
Length of Visible Light 11h 46m
Length of Day
10h 48m
Waxing Gibbous, 76% of the Moon is Illuminated
Feb 20
Waxing Gibbous
Feb 25
Full
Mar 4
Last Quarter
Mar 11
New
Mar 19
First Quarter

Hourly Weather History & Observations

Time (EST) Temp. Windchill Dew Point Humidity Pressure Visibility Wind Dir Wind Speed Gust Speed Precip Events Conditions
12:18 AM 21.2 °F 10.1 °F 12.2 °F 68% 29.85 in 10.0 mi West 10.4 mph 16.1 mph N/A   Scattered Clouds
12:38 AM 21.2 °F 8.9 °F 12.2 °F 68% 29.86 in 10.0 mi West 12.7 mph 16.1 mph N/A   Scattered Clouds
1:38 AM 21.2 °F 10.9 °F 14.0 °F 74% 29.87 in 7.0 mi West 9.2 mph 19.6 mph N/A   Overcast
2:38 AM 21.2 °F 9.5 °F 12.2 °F 68% 29.89 in 10.0 mi West 11.5 mph 17.3 mph N/A   Overcast
3:18 AM 21.2 °F 8.9 °F 10.4 °F 63% 29.89 in 10.0 mi West 12.7 mph 23.0 mph N/A   Overcast
3:38 AM 21.2 °F 10.1 °F 10.4 °F 63% 29.90 in 10.0 mi WNW 10.4 mph 24.2 mph N/A Snow Light Snow
3:58 AM 19.4 °F 6.6 °F 14.0 °F 80% 29.92 in 2.5 mi West 12.7 mph 21.9 mph N/A Snow Light Snow
4:18 AM 19.4 °F 7.2 °F 12.2 °F 74% 29.92 in 10.0 mi WNW 11.5 mph 20.7 mph N/A   Overcast
4:38 AM 19.4 °F 6.6 °F 8.6 °F 63% 29.93 in 10.0 mi West 12.7 mph 19.6 mph N/A   Overcast
4:58 AM 19.4 °F 7.2 °F 6.8 °F 58% 29.94 in 10.0 mi West 11.5 mph 18.4 mph N/A   Overcast
5:18 AM 19.4 °F 7.9 °F 6.8 °F 58% 29.94 in 10.0 mi West 10.4 mph 16.1 mph N/A   Overcast
5:38 AM 19.4 °F 6.6 °F 6.8 °F 58% 29.95 in 10.0 mi West 12.7 mph 19.6 mph N/A   Overcast
5:58 AM 19.4 °F 8.6 °F 6.8 °F 58% 29.96 in 10.0 mi West 9.2 mph 21.9 mph N/A   Overcast
6:18 AM 19.4 °F 10.4 °F 8.6 °F 63% 29.97 in 10.0 mi West 6.9 mph 19.6 mph N/A   Overcast
6:38 AM 19.4 °F 8.6 °F 8.6 °F 63% 29.97 in 10.0 mi West 9.2 mph 16.1 mph N/A   Overcast
7:18 AM 19.4 °F 7.9 °F 10.4 °F 68% 29.98 in 10.0 mi West 10.4 mph 18.4 mph N/A   Overcast
7:38 AM 19.4 °F 8.6 °F 10.4 °F 68% 29.99 in 10.0 mi West 9.2 mph 16.1 mph N/A   Overcast
8:18 AM 19.4 °F 11.5 °F 10.4 °F 68% 30.01 in 10.0 mi West 5.8 mph 19.6 mph N/A   Overcast
8:38 AM 19.4 °F 7.2 °F 10.4 °F 68% 30.02 in 10.0 mi West 11.5 mph 17.3 mph N/A   Overcast
8:58 AM 19.4 °F 8.6 °F 10.4 °F 68% 30.02 in 7.0 mi West 9.2 mph 16.1 mph N/A   Overcast
9:18 AM 19.4 °F 6.6 °F 14.0 °F 80% 30.02 in 1.0 mi WNW 12.7 mph 19.6 mph N/A Snow Light Snow
9:38 AM 19.4 °F 9.5 °F 14.0 °F 80% 30.02 in 1.8 mi West 8.1 mph - N/A Snow Light Snow
9:58 AM 19.4 °F 6.0 °F 10.4 °F 68% 30.03 in 5.0 mi WNW 13.8 mph 24.2 mph N/A Snow Light Snow
10:18 AM 19.4 °F 5.5 °F 12.2 °F 74% 30.04 in 2.0 mi WNW 15.0 mph 23.0 mph N/A Snow Light Snow
10:38 AM 19.4 °F 4.1 °F 10.4 °F 68% 30.04 in 7.0 mi WNW 18.4 mph 24.2 mph N/A Snow Light Snow
10:58 AM 19.4 °F 5.5 °F 14.0 °F 80% 30.05 in 0.5 mi WNW 15.0 mph 20.7 mph N/A Snow Snow
11:18 AM 21.2 °F 6.4 °F 12.2 °F 68% 30.05 in 10.0 mi NW 18.4 mph 23.0 mph N/A   Overcast
11:38 AM 21.2 °F 8.9 °F 10.4 °F 63% 30.05 in 10.0 mi NW 12.7 mph 21.9 mph N/A   Overcast
11:58 AM 21.2 °F 6.8 °F 10.4 °F 63% 30.06 in 10.0 mi WNW 17.3 mph - N/A   Overcast
12:18 PM 21.2 °F 8.3 °F 8.6 °F 58% 30.07 in 10.0 mi NW 13.8 mph 23.0 mph N/A   Overcast
12:38 PM 21.2 °F 7.8 °F 10.4 °F 63% 30.07 in 10.0 mi NW 15.0 mph 21.9 mph N/A   Overcast
12:58 PM 23.0 °F 11.1 °F 8.6 °F 54% 30.07 in 10.0 mi WNW 12.7 mph 20.7 mph N/A   Overcast
1:18 PM 21.2 °F 7.3 °F 10.4 °F 63% 30.08 in 10.0 mi WNW 16.1 mph 23.0 mph N/A   Overcast
1:38 PM 23.0 °F 11.1 °F 10.4 °F 59% 30.09 in 10.0 mi NW 12.7 mph 18.4 mph N/A   Overcast
1:58 PM 23.0 °F 9.2 °F 10.4 °F 59% 30.09 in 10.0 mi WNW 17.3 mph 21.9 mph N/A   Overcast
2:18 PM 23.0 °F 10.6 °F 10.4 °F 59% 30.10 in 10.0 mi WNW 13.8 mph 21.9 mph N/A   Overcast
2:38 PM 23.0 °F 11.7 °F 10.4 °F 59% 30.10 in 10.0 mi WNW 11.5 mph - N/A   Overcast
2:58 PM 23.0 °F 11.7 °F 10.4 °F 59% 30.10 in 10.0 mi WNW 11.5 mph 18.4 mph N/A   Overcast
3:18 PM 23.0 °F 13.9 °F 10.4 °F 59% 30.11 in 10.0 mi WNW 8.1 mph - N/A   Overcast
3:38 PM 23.0 °F 11.7 °F 10.4 °F 59% 30.11 in 10.0 mi WNW 11.5 mph 20.7 mph N/A   Overcast
3:58 PM 23.0 °F 12.4 °F 10.4 °F 59% 30.11 in 10.0 mi WNW 10.4 mph 16.1 mph N/A   Overcast
4:18 PM 23.0 °F 13.9 °F 10.4 °F 59% 30.13 in 10.0 mi WNW 8.1 mph - N/A   Overcast
5:18 PM 23.0 °F 13.1 °F 12.2 °F 63% 30.15 in 10.0 mi West 9.2 mph - N/A   Overcast
6:58 PM 23.0 °F 13.1 °F 12.2 °F 63% 30.17 in 10.0 mi WNW 9.2 mph - N/A   Overcast
7:18 PM 23.0 °F 11.1 °F 12.2 °F 63% 30.16 in 10.0 mi WNW 12.7 mph 21.9 mph N/A   Overcast
9:38 PM 21.2 °F 9.5 °F 12.2 °F 68% 30.18 in 10.0 mi NW 11.5 mph 20.7 mph N/A Snow Light Snow
11:58 PM 19.4 °F 11.5 °F 12.2 °F 74% 30.20 in 5.0 mi NNW 5.8 mph - N/A Snow Light Snow